Lander, WY

4:28 PM MDT on March 25, 2017 (GMT -0600)
Hunt

Weather History for KLND - December, 2012

Change the Weather History Date:

Tuesday, December 4, 2012

  Actual Average Record
Temperature  
Mean Temperature 33 °F 22 °F  
Max Temperature 43 °F 33 °F 62 °F (1979)
Min Temperature 23 °F 11 °F -25 °F (1909)
Degree Days  
Heating Degree Days 32 43  
Month to date heating degree days 103 170  
Since 1 July heating degree days 1602 2043  
Cooling Degree Days 0 0  
Month to date cooling degree days 0 0  
Year to date cooling degree days 779 472  
Moisture  
Dew Point 16 °F    
Average Humidity 51    
Maximum Humidity 69    
Minimum Humidity 33    
Precipitation  
Precipitation 0.00 in 0.02 in 0.80 in (1906)
Month to date precipitation 0.01 0.09  
Year to date precipitation 6.21 12.17  
Snow  
Snow 0.00 in 0.40 in - ()
Month to date snowfall 0.0 1.6  
Since 1 July snowfall 10.4 27.2  
Snow Depth 0.00 in    
Sea Level Pressure  
Sea Level Pressure 30.20 in    
Wind  
Wind Speed 3 mph (WNW)    
Max Wind Speed 13 mph    
Max Gust Speed 16 mph    
Visibility 10 miles    
Events      
T = Trace of Precipitation, MM = Missing Value Source: NWS Daily Summary

Daily Weather History Graph

Daily Weather History Graph

Search for Another Location

Airport or City:

Trip Planner

Search our weather history database for the weather conditions in past years. The results will help you decide how hot, cold, wet, or windy it might be!

Date:

Astronomy

Dec. 04, 2012 Rise Set
Actual Time 7:29 AM MST 4:41 PM MST
Civil Twilight 6:57 AM MST 5:12 PM MST
Nautical Twilight 6:22 AM MST 5:48 PM MST
Astronomical Twilight 5:48 AM MST 6:22 PM MST
Moon 10:37 PM MST (12/4) 11:20 AM MST (12/4)
Length of Visible Light 10h 15m
Length of Day
9h 11m
Waning Gibbous, 69% of the Moon is Illuminated
Dec 4
Waning Gibbous
Dec 6
Last Quarter
Dec 13
New
Dec 19
First Quarter
Dec 28
Full

Hourly Weather History & Observations

Time (MST) Temp. Windchill Dew Point Humidity Pressure Visibility Wind Dir Wind Speed Gust Speed Precip Events Conditions
12:53 AM 25.0 °F 20.7 °F 12.0 °F 58% 30.25 in 10.0 mi SSE 3.5 mph - N/A   Clear
1:53 AM 24.1 °F 19.7 °F 12.9 °F 62% 30.25 in 10.0 mi NW 3.5 mph - N/A   Clear
2:53 AM 24.1 °F - 12.0 °F 60% 30.26 in 10.0 mi Calm Calm - N/A   Clear
3:53 AM 24.1 °F - 12.9 °F 62% 30.25 in 10.0 mi Calm Calm - N/A   Clear
4:53 AM 24.1 °F 19.7 °F 12.9 °F 62% 30.25 in 10.0 mi NNW 3.5 mph - N/A   Clear
5:53 AM 25.0 °F - 12.9 °F 60% 30.27 in 10.0 mi Calm Calm - N/A   Clear
6:53 AM 26.1 °F 20.5 °F 14.0 °F 60% 30.26 in 10.0 mi West 4.6 mph - N/A   Clear
7:53 AM 25.0 °F 18.1 °F 15.1 °F 66% 30.26 in 10.0 mi NW 5.8 mph - N/A   Clear
8:53 AM 28.9 °F 21.1 °F 15.1 °F 56% 30.27 in 10.0 mi NW 8.1 mph - N/A   Clear
9:53 AM 28.0 °F - 19.0 °F 69% 30.27 in 8.0 mi Calm Calm - N/A   Clear
10:53 AM 30.0 °F 26.5 °F 17.1 °F 59% 30.26 in 10.0 mi SE 3.5 mph - N/A   Clear
11:53 AM 34.0 °F - 17.1 °F 50% 30.24 in 10.0 mi Calm Calm - N/A   Clear
12:53 PM 36.0 °F 31.1 °F 19.0 °F 50% 30.20 in 10.0 mi ESE 5.8 mph - N/A   Clear
1:53 PM 39.0 °F 35.7 °F 17.1 °F 41% 30.15 in 10.0 mi ESE 4.6 mph - N/A   Clear
2:53 PM 42.1 °F 37.7 °F 15.1 °F 34% 30.16 in 10.0 mi North 6.9 mph - N/A   Clear
3:53 PM 42.1 °F - 15.1 °F 34% 30.17 in 10.0 mi Calm Calm - N/A   Clear
4:53 PM 37.9 °F 34.4 °F 15.1 °F 39% 30.18 in 10.0 mi SSE 4.6 mph - N/A   Clear
5:53 PM 37.0 °F 33.3 °F 16.0 °F 42% 30.17 in 10.0 mi Variable 4.6 mph - N/A   Clear
6:53 PM 35.1 °F 29.3 °F 18.0 °F 50% 30.16 in 10.0 mi WNW 6.9 mph - N/A   Clear
7:53 PM 34.0 °F - 18.0 °F 52% 30.18 in 10.0 mi Calm Calm - N/A   Clear
8:53 PM 36.0 °F - 19.0 °F 50% 30.14 in 10.0 mi Calm Calm - N/A   Clear
9:53 PM 35.1 °F - 19.9 °F 54% 30.12 in 10.0 mi Calm Calm - N/A   Clear
10:53 PM 36.0 °F 31.1 °F 21.0 °F 55% 30.10 in 10.0 mi NW 5.8 mph - N/A   Overcast
11:53 PM 39.0 °F 34.8 °F 23.0 °F 53% 30.04 in 10.0 mi SW 5.8 mph - N/A   Mostly Cloudy